SCP
1 1 1 1 0 0 0 0 0 0 0 0 0 0 0 0 0 0 0 0 0 0 0 0 0 0 0 0 0 0 0 0 0 0 0 0 0 0 0 0 0 0 0 0 0 0 0 0 0
1 1 1 0 0 0 0 0 0 0 0 0 0 0 0 0 0 0 0 0 0 0 0 0 0 0 0 0 0 0 0 0 0 0 0 0 0 0 0 0 0 0 0 0 0 0 0 0 0
1 1 0 0 0 0 0 0 0 0 0 0 0 0 0 0 0 0 0 0 0 0 0 0 0 0 0 1 1 1 1 1 0 0 0 0 0 0 0 0 0 0 0 0 0 0 1 0 0
1 1 0 0 0 0 0 0 0 0 0 0 0 0 0 0 0 0 0 0 0 0 0 0 0 1 1 1 1 1 1 1 0 0 0 0 0 0 0 0 0 0 0 0 0 0 0 0 0
0 0 0 0 0 0 0 0 0 0 0 0 0 0 0 0 0 0 0 0 0 0 0 0 1 1 1 1 1 1 0 0 0 0 0 1 1 1 1 1 0 0 0 0 0 0 0 0 0
0 0 0 0 0 0 0 0 0 0 0 0 0 0 0 0 0 0 0 0 0 0 0 1 1 1 1 1 1 1 0 0 0 0 0 1 1 1 1 0 0 0 0 0 0 0 0 0 0
0 0 0 0 0 0 0 0 0 0 0 0 0 0 0 0 0 0 0 0 1 1 1 1 1 1 1 1 1 0 0 0 1 1 0 0 1 1 0 0 0 0 0 0 0 0 0 0 0
0 0 0 0 0 0 0 0 0 0 0 0 0 0 0 1 1 1 0 0 0 0 1 1 1 1 1 1 0 0 0 0 1 1 1 0 0 0 0 0 0 0 0 0 0 0 1 1 0
0 0 0 0 0 0 1 0 0 0 0 0 0 0 1 1 1 1 1 1 0 0 0 0 1 1 1 0 0 0 0 0 1 1 1 0 0 0 0 0 0 0 0 1 0 0 1 1 0
0 0 0 0 0 0 1 0 0 0 0 0 0 1 1 1 1 1 1 0 0 0 0 0 0 0 0 0 0 0 0 0 1 1 1 1 0 0 0 0 0 0 1 1 1 0 0 0 1
0 0 0 0 0 0 0 0 0 0 0 0 0 0 1 1 1 1 0 0 0 0 0 0 0 0 0 0 1 1 0 0 1 1 1 1 1 1 1 1 1 1 1 1 1 1 0 1 1
0 0 0 0 0 0 0 0 0 0 0 0 0 0 0 1 0 0 0 0 0 0 0 0 0 0 0 1 1 1 1 1 1 1 1 1 1 1 1 1 1 1 1 1 1 1 1 1 1
0 0 0 0 0 0 0 0 0 0 0 0 0 0 0 0 0 0 0 0 0 0 0 0 0 0 0 1 1 1 1 1 1 1 1 1 1 1 1 1 1 1 1 1 1 1 1 1 0
0 0 0 0 0 0 0 0 0 0 0 0 0 1 1 0 0 0 0 0 0 0 0 0 0 0 0 1 1 1 1 1 1 1 1 1 1 1 1 1 1 1 1 1 1 1 1 0 0
0 0 0 0 0 0 0 0 0 0 0 0 0 1 1 1 0 0 0 0 0 0 0 0 0 0 0 1 1 1 1 1 1 1 2 1 1 1 1 1 1 1 1 1 1 1 0 0 0
0 0 0 0 0 0 0 0 0 0 0 0 0 1 1 1 0 0 0 0 0 0 0 1 1 1 1 1 1 1 1 1 1 1 2 2 2 2 2 1 1 1 1 1 1 0 0 0 0
0 0 0 0 0 0 0 0 0 0 0 0 0 1 1 1 0 0 0 0 0 0 1 1 1 1 1 1 1 1 1 1 1 1 1 2 2 2 2 2 1 1 1 1 1 0 0 0 0
0 0 0 0 0 0 0 0 0 0 0 0 0 1 1 1 1 0 0 1 0 0 1 1 1 1 1 1 1 1 1 0 1 1 1 1 1 2 1 1 1 1 1 1 1 0 0 0 1
0 0 0 0 0 0 0 0 0 0 0 0 1 1 1 1 1 1 1 1 1 1 1 1 1 1 1 1 1 1 0 0 0 1 1 1 1 1 1 1 1 2 2 1 1 1 1 1 1
0 0 0 0 0 0 0 0 0 0 0 0 0 1 1 1 1 1 1 1 1 1 1 1 1 1 1 1 1 1 0 0 0 0 1 1 1 1 1 1 1 1 1 1 1 1 1 1 1
0 0 0 0 0 0 0 0 0 0 0 0 0 0 1 1 1 1 1 1 1 1 1 1 1 1 1 1 1 1 0 0 0 0 0 0 1 1 1 1 1 1 1 1 1 1 1 1 1
0 0 0 0 0 0 0 0 0 0 0 0 0 0 0 1 1 1 1 1 1 1 1 1 1 1 1 1 1 1 0 0 0 0 0 1 0 0 0 0 0 1 1 1 1 1 1 1 1
0 0 0 0 0 0 0 0 0 0 0 0 0 0 0 0 1 1 1 1 1 1 1 1 1 1 1 1 1 1 0 0 0 0 0 0 0 0 0 0 0 0 1 1 1 1 1 1 1
0 0 0 0 0 0 0 0 0 0 0 0 0 0 0 0 0 1 1 1 1 1 1 1 1 1 1 1 1 1 0 0 0 0 0 0 0 0 0 0 0 0 0 0 0 0 1 1 1
0 0 0 0 0 0 0 0 0 0 0 0 0 0 0 0 0 0 1 1 1 1 1 1 1 1 1 1 1 0 0 0 0 0 0 0 1 0 0 0 0 0 0 0 0 0 0 1 1
0 0 0 0 0 0 0 0 0 0 0 0 0 0 0 0 0 0 1 1 1 1 1 1 1 1 1 0 0 0 0 0 0 0 1 1 1 1 0 0 0 0 0 1 1 1 1 1 1
0 0 0 0 0 0 0 0 0 0 0 0 0 0 0 0 0 0 1 1 1 1 1 1 1 0 0 0 0 0 0 0 0 1 1 1 1 1 1 1 0 1 1 1 1 1 1 1 1
0 0 0 0 0 0 0 0 0 0 0 0 1 1 1 1 0 1 1 1 1 1 1 1 0 0 0 0 0 0 0 0 0 0 1 1 1 1 1 1 1 1 1 1 1 1 1 1 1
0 0 0 0 0 0 0 0 0 0 0 1 1 1 1 1 1 1 1 1 1 1 1 1 0 0 0 1 1 1 0 0 0 0 0 0 0 0 0 1 1 1 1 1 1 2 2 1 1
0 0 0 0 0 0 0 0 0 0 1 1 1 1 1 1 1 1 1 1 1 1 1 0 0 0 0 0 1 1 1 1 0 0 0 0 0 0 0 1 1 1 1 1 1 2 2 1 1
Wind_Speed
2 1 2 3 3 2 5 5 3 4 4 5 5 4 5 6 6 6 5 4 4 5 6 7 6 5 5 5 5 5 6 6 6 6 7 7 7 8 8 9 9 9 8 8 8 9 8 8 8
1 1 3 3 2 3 5 4 5 5 5 4 4 4 5 6 6 6 5 4 4 5 5 6 6 6 5 5 5 5 5 6 6 6 7 7 7 8 8 8 8 8 8 9 8 8 8 8 8
1 3 2 1 1 3 5 5 6 6 4 2 3 4 5 5 5 5 5 6 5 6 5 7 5 5 5 6 6 6 6 6 6 6 7 7 7 8 9 9 8 8 8 8 8 8 9 8 8
2 3 2 1 5 5 5 5 5 6 4 3 3 5 6 5 4 5 6 6 6 6 6 8 5 5 5 5 5 6 6 6 7 7 7 7 7 8 9 8 8 8 8 8 8 8 9 9 8
2 2 2 4 5 5 4 4 3 3 4 4 3 6 6 5 5 6 6 5 6 6 6 7 6 5 5 4 5 5 6 6 7 6 6 7 7 8 8 7 7 7 8 8 8 8 8 8 8
2 2 3 4 6 5 4 3 3 4 5 4 4 5 6 5 6 6 6 5 5 6 5 6 7 4 4 4 4 5 6 6 6 6 6 7 7 7 7 7 7 7 8 8 8 7 8 8 8
1 1 2 5 5 5 4 2 2 3 4 4 3 4 6 6 6 6 6 5 5 5 4 4 5 6 5 5 5 5 5 5 5 6 6 7 7 7 7 7 7 7 7 7 8 7 7 8 8
1 1 4 4 4 5 4 3 2 2 4 4 1 3 5 7 7 6 5 5 5 5 4 4 3 3 4 6 6 5 5 6 6 6 6 6 6 7 6 6 7 7 8 8 8 7 7 7 8
2 2 3 4 3 4 4 4 3 2 4 4 2 4 6 9 8 7 5 5 5 4 3 3 3 3 3 3 5 5 6 6 5 6 6 4 3 5 5 9 8 7 7 8 8 7 6 5 7
2 1 3 2 2 3 3 2 3 3 3 4 4 6 7 8 7 6 5 5 5 4 3 2 2 2 2 2 3 2 3 3 2 3 4 3 3 4 4 8 7 7 7 7 7 5 3 1 3
1 2 3 2 2 3 3 3 2 2 1 2 4 7 8 7 6 6 5 4 4 3 3 2 1 1 2 2 2 2 2 2 2 3 3 3 3 3 3 3 5 4 4 3 4 2 2 3 3
2 2 1 2 2 3 3 3 3 1 1 2 3 6 8 7 6 5 4 4 3 3 3 3 2 2 2 2 2 2 2 2 2 2 3 2 2 2 3 2 2 2 2 3 2 2 3 3 4
3 3 2 2 2 3 4 3 1 1 1 2 5 7 7 6 5 4 3 3 3 3 3 3 2 2 2 2 1 2 2 2 3 2 2 3 2 2 2 2 2 3 2 2 2 2 4 4 4
3 3 2 2 3 4 3 2 1 1 2 4 6 6 6 5 5 4 4 3 3 3 3 3 3 2 2 2 2 2 2 2 2 2 2 3 2 2 2 2 3 3 2 3 2 3 3 3 3
3 3 3 3 2 2 2 3 2 1 3 4 5 5 5 4 4 4 3 3 3 3 3 4 3 2 2 2 2 2 2 2 2 2 2 2 3 2 2 2 2 2 2 3 3 3 3 3 3
4 3 2 3 1 2 4 2 3 2 4 4 4 4 4 4 4 3 3 2 2 2 3 3 2 3 3 2 2 2 2 2 2 1 1 2 2 3 3 2 2 2 2 2 2 2 2 3 3
4 3 2 2 1 1 3 1 2 2 4 4 4 4 4 4 4 3 3 2 2 2 2 3 3 2 3 3 2 2 2 2 1 1 1 1 2 2 2 2 2 2 1 1 2 2 2 3 3
3 2 2 1 1 2 3 2 1 3 4 3 3 3 4 4 3 3 3 3 2 2 2 3 3 2 3 2 2 2 2 2 1 1 1 1 1 1 2 2 2 2 1 1 1 2 2 2 2
2 3 2 1 0 3 3 2 2 3 4 4 4 3 3 3 4 4 3 3 3 3 2 3 3 3 2 2 1 1 1 1 1 1 1 1 1 1 2 1 2 1 1 1 1 1 2 2 1
4 4 2 1 1 3 2 2 2 2 3 2 2 3 3 3 4 4 3 3 2 3 3 3 2 2 2 2 1 1 1 1 1 1 0 0 1 1 1 1 1 2 1 1 2 1 0 1 0
4 4 3 1 1 4 4 4 4 4 3 3 2 2 2 3 3 4 3 3 3 2 3 2 2 2 2 3 2 2 2 1 1 2 1 0 0 1 1 1 1 1 1 2 2 1 1 0 0
3 2 3 4 5 2 4 3 4 4 4 3 3 3 3 3 3 3 3 3 3 2 2 3 3 2 2 3 3 3 2 1 1 1 1 1 1 1 1 1 1 1 1 2 2 1 1 1 1
1 1 3 5 5 5 4 5 3 4 4 3 3 3 3 3 3 3 3 3 2 2 2 2 2 2 2 2 3 3 2 1 1 1 2 1 1 1 1 1 2 2 2 2 1 1 2 1 1
2 4 4 5 6 6 3 5 2 2 2 2 3 3 3 3 3 3 3 3 3 2 2 2 2 2 2 3 3 3 3 3 3 2 2 2 1 1 2 1 2 2 2 2 2 2 2 2 2
5 5 4 5 5 2 1 5 1 2 2 2 2 3 3 3 3 3 3 3 2 2 2 2 2 3 3 3 4 4 4 4 4 3 2 2 1 1 2 2 2 2 2 2 2 2 2 2 2
5 6 4 3 3 1 3 4 2 2 1 0 1 2 3 3 3 3 3 2 2 2 1 1 2 2 2 3 3 3 3 2 2 3 2 2 1 1 2 2 2 2 2 2 2 2 2 2 2
5 4 4 5 4 5 3 2 2 1 1 1 2 2 3 3 3 3 3 2 2 1 1 1 1 1 1 2 2 2 3 3 3 3 2 1 1 1 2 2 2 2 2 2 2 2 2 2 2
3 2 4 5 4 5 3 4 1 2 1 2 2 2 3 3 3 3 3 2 1 1 1 1 1 1 1 2 2 2 2 2 2 2 2 2 2 1 2 2 2 3 3 2 2 2 2 2 2
5 5 5 5 5 5 4 0 2 1 1 2 2 2 2 3 3 3 2 2 2 2 1 1 1 1 1 1 1 2 2 2 2 2 2 2 2 2 2 2 2 3 3 3 3 3 3 3 3
5 5 6 6 5 6 6 1 3 1 1 2 2 1 2 2 3 2 2 2 2 2 1 1 1 1 1 1 1 1 1 1 2 2 2 2 2 2 2 2 3 3 3 3 3 4 4 4 3
Wind_Direction
235 218 226 238 227 123 74 74 78 89 74 61 55 51 52 39 22 54 84 96 96 108 108 115 104 94 84 85 89 88 88 86 91 88 87 86 85 87 85 84 84 82 81 80 76 73 71 72 75
269 227 232 244 246 113 85 85 88 72 88 98 79 69 68 66 52 82 105 101 110 107 105 97 97 94 86 86 87 88 91 90 92 93 89 88 88 90 85 83 83 81 79 79 76 73 71 71 72
202 248 262 238 69 58 87 95 96 95 104 98 83 60 47 60 74 86 98 118 115 106 104 98 98 96 88 88 88 88 90 96 93 91 90 88 88 91 86 80 79 76 75 76 75 73 71 71 72
241 220 222 166 94 70 81 99 107 117 109 82 96 90 77 58 68 92 112 119 113 109 105 101 101 98 93 89 90 86 87 94 90 85 92 90 88 88 87 84 82 77 74 74 76 76 71 69 69
245 244 168 124 98 92 91 92 111 106 95 89 92 92 87 82 92 110 119 116 112 107 104 105 101 100 96 93 91 89 87 91 89 85 91 94 92 92 91 89 84 78 76 76 76 75 73 69 66
224 228 169 127 111 108 107 114 122 98 93 95 99 95 84 104 115 115 118 110 104 106 111 113 114 97 89 85 87 88 90 91 95 93 89 91 91 91 89 88 87 84 80 79 77 75 72 69 65
284 160 125 123 125 123 106 110 117 107 99 83 88 96 107 121 119 125 121 111 104 104 104 105 116 123 117 91 83 84 88 84 91 97 94 93 89 88 87 86 83 83 80 79 78 79 77 72 67
317 176 137 135 137 117 113 120 78 74 86 88 108 107 115 127 133 133 128 123 115 107 101 96 97 94 106 115 104 94 88 87 89 92 94 104 116 112 105 105 86 80 79 78 76 75 76 75 71
254 195 137 129 138 118 135 132 95 83 111 107 82 69 98 127 140 141 139 134 121 110 102 93 84 82 82 87 110 122 116 106 116 117 124 154 117 105 111 81 82 81 83 81 77 73 75 88 94
232 155 105 101 121 124 137 125 117 139 132 128 122 113 120 138 150 152 149 141 132 125 114 104 97 88 86 84 102 107 111 116 109 94 103 94 85 76 79 100 93 91 96 98 86 82 110 191 93
88 89 100 114 125 142 141 122 116 179 131 120 141 141 144 151 157 160 149 137 125 121 111 106 106 96 88 94 84 84 90 93 90 86 90 86 93 108 99 108 122 119 124 101 109 127 64 58 59
111 89 110 113 129 159 151 140 139 217 25 60 128 141 150 158 161 162 152 140 127 115 106 100 99 103 98 94 96 106 104 96 88 82 81 87 83 77 79 77 76 81 80 66 57 54 62 55 57
127 97 91 106 131 142 135 137 129 68 61 125 139 148 157 163 164 160 157 146 138 125 112 104 108 109 109 98 104 113 102 95 98 83 78 87 89 84 84 81 76 66 66 75 60 59 62 55 47
107 110 105 111 127 136 135 135 139 67 122 143 150 155 162 167 169 164 168 165 149 135 128 125 116 113 121 126 135 109 103 109 80 75 84 92 92 86 78 73 69 62 57 56 56 66 65 57 52
151 142 128 118 131 141 172 144 131 101 155 155 156 157 162 166 170 177 173 172 157 141 135 126 125 123 117 114 112 110 110 103 89 83 81 94 91 85 80 75 78 75 71 72 66 70 64 65 63
190 196 158 112 128 177 230 156 102 131 170 162 157 157 164 165 173 172 167 167 149 150 142 128 137 138 119 112 122 114 108 96 89 89 75 86 91 89 86 88 85 80 75 81 85 71 73 71 63
196 202 166 132 132 214 232 212 101 142 179 170 167 168 170 163 168 158 161 160 153 162 153 148 148 143 127 117 118 107 109 111 101 93 77 77 81 92 100 94 101 102 94 85 84 72 64 71 68
196 208 204 195 114 227 224 214 152 151 184 182 171 170 167 169 162 147 142 146 156 164 170 154 151 151 135 134 134 121 112 113 102 100 91 80 92 101 103 120 120 107 100 89 90 92 88 83 77
242 243 252 319 186 239 231 223 195 159 178 189 182 173 167 160 147 142 143 151 164 160 170 151 159 155 148 152 165 146 138 129 104 76 79 112 129 127 118 133 121 108 97 104 94 95 115 109 94
230 237 240 167 135 251 239 232 196 176 187 202 201 187 177 162 150 144 154 158 171 164 172 164 157 154 159 160 171 154 135 136 94 88 68 84 141 133 136 136 132 128 129 137 124 127 119 116 122
231 250 258 276 241 214 244 207 180 163 170 175 194 202 181 169 163 158 166 165 169 168 175 169 163 163 173 164 159 137 134 166 166 165 148 50 183 162 157 152 148 148 163 151 164 177 179 185 225
237 260 259 243 242 216 257 250 175 182 184 184 187 185 181 171 180 169 168 165 164 163 179 179 171 175 171 178 187 184 197 205 194 190 161 173 205 201 180 177 184 174 172 168 190 192 212 230 226
290 258 240 244 253 245 222 258 160 175 201 195 187 182 180 179 182 176 168 163 155 149 169 191 186 186 181 199 197 213 212 206 180 183 177 193 185 206 197 212 215 204 192 195 203 214 243 246 274
179 195 195 222 241 240 223 258 210 160 251 237 198 190 186 177 172 163 151 152 143 140 155 180 199 199 206 211 207 207 204 202 193 189 192 197 183 199 194 218 234 231 213 204 213 228 236 258 273
218 240 227 218 220 227 165 252 285 48 343 280 237 202 182 175 166 158 153 153 147 151 164 189 204 206 211 215 214 211 206 211 213 210 202 207 200 204 206 209 225 235 229 221 219 228 237 240 245
227 251 267 273 273 242 205 244 88 56 21 358 207 189 178 168 163 161 157 152 156 165 181 193 204 209 214 220 216 211 204 215 228 230 223 209 218 229 217 213 220 218 219 225 222 241 230 243 241
220 226 279 278 275 266 223 206 176 136 149 145 163 177 184 177 173 167 161 156 157 161 172 177 188 189 204 220 216 212 210 208 218 228 221 214 221 238 233 216 220 214 214 227 222 234 229 236 247
279 206 224 251 271 264 245 243 240 184 195 187 205 207 196 188 183 174 168 163 152 138 137 133 177 183 183 211 209 200 216 218 220 218 210 218 220 209 222 224 217 216 208 214 218 231 230 228 228
188 198 230 245 265 277 275 212 47 323 275 247 239 221 202 191 186 179 173 164 146 135 141 141 158 158 165 192 195 193 199 216 218 220 226 237 239 225 228 223 218 215 210 208 210 228 221 227 220
242 237 237 249 243 254 275 295 90 342 310 300 290 251 212 194 182 177 168 159 158 151 151 138 138 131 123 151 160 169 184 200 218 226 229 237 242 236 237 229 225 217 222 221 219 226 228 230 227